User: anonymous   Login
Location: Unspecified
(0.0000°N, 0.0000°E)
Time: 12:30:13
(UTC+00:00)
Language:

Falconsat - Orbit

View from above orbital plane
View from above orbital plane
View from above satellite
View from above satellite

Ground track
Ground track

The orbit data is extracted from the following two-line orbital elements,

1 26064U 00004D   21015.70024531 -.00000010  00000-0  16662-4 0  9990
2 26064 100.1950 275.8720 0037114 235.9156 123.8500 14.36225114 98683
Epoch (UTC): 15 January 2021 16:48:21
Eccentricity: 0.0037114
inclination: 100.1950°
perigee height: 744 km
apogee height: 797 km
right ascension of ascending node: 275.8720°
argument of perigee: 235.9156°
revolutions per day: 14.36225114
mean anomaly at epoch: 123.8500°
orbit number at epoch: 9868

The dashed part of the orbit path shows where the satellite is in the earth's shadow,  

DLR